QPF
0.01 0.01 0.02 0.02 0.02 0.02 0.02 0.01 0.00 0.00 0.01 0.01 0.01 0.00 0.01 0.01 0.00 0.01 0.01 0.00 0.00 0.00 0.00 0.01 0.02 0.02 0.02 0.03 0.03 0.02 0.01 0.01 0.00 0.01 0.01 0.01 0.01 0.02 0.02 0.02 0.03 0.05 0.05
0.01 0.02 0.02 0.02 0.02 0.01 0.01 0.01 0.00 0.00 0.00 0.01 0.01 0.01 0.01 0.01 0.01 0.01 0.00 0.00 0.00 0.00 0.00 0.00 0.01 0.01 0.02 0.03 0.03 0.01 0.01 0.01 0.01 0.02 0.02 0.02 0.03 0.04 0.04 0.04 0.06 0.06 0.05
0.01 0.01 0.01 0.01 0.01 0.02 0.01 0.01 0.01 0.00 0.00 0.01 0.01 0.01 0.01 0.01 0.01 0.00 0.02 0.01 0.00 0.00 0.00 0.00 0.00 0.01 0.02 0.02 0.02 0.01 0.01 0.01 0.01 0.02 0.03 0.04 0.05 0.04 0.04 0.05 0.06 0.07 0.07
0.01 0.01 0.01 0.02 0.01 0.01 0.01 0.01 0.02 0.01 0.01 0.00 0.00 0.00 0.00 0.00 0.01 0.01 0.02 0.01 0.00 0.00 0.01 0.01 0.01 0.01 0.01 0.02 0.02 0.01 0.01 0.01 0.01 0.02 0.02 0.03 0.05 0.05 0.05 0.04 0.05 0.05 0.07
0.00 0.00 0.01 0.01 0.01 0.01 0.02 0.02 0.03 0.03 0.01 0.01 0.01 0.01 0.01 0.02 0.02 0.02 0.02 0.01 0.00 0.00 0.01 0.01 0.01 0.02 0.02 0.01 0.01 0.02 0.01 0.01 0.01 0.01 0.02 0.02 0.05 0.05 0.05 0.05 0.04 0.04 0.06
0.00 0.00 0.00 0.01 0.02 0.02 0.03 0.04 0.05 0.06 0.05 0.03 0.02 0.02 0.02 0.02 0.02 0.03 0.03 0.03 0.01 0.01 0.01 0.01 0.01 0.01 0.01 0.02 0.02 0.01 0.01 0.01 0.01 0.02 0.02 0.03 0.05 0.05 0.05 0.05 0.05 0.05 0.06
0.00 0.00 0.00 0.00 0.02 0.03 0.04 0.05 0.05 0.05 0.06 0.05 0.03 0.02 0.01 0.01 0.01 0.01 0.02 0.03 0.03 0.02 0.01 0.01 0.00 0.00 0.00 0.01 0.01 0.01 0.01 0.02 0.02 0.03 0.03 0.03 0.04 0.05 0.04 0.04 0.04 0.04 0.05
0.00 0.00 0.00 0.00 0.01 0.02 0.04 0.05 0.05 0.05 0.05 0.04 0.03 0.02 0.02 0.01 0.01 0.01 0.03 0.04 0.03 0.03 0.02 0.01 0.01 0.00 0.00 0.00 0.00 0.01 0.01 0.01 0.02 0.02 0.03 0.03 0.04 0.04 0.03 0.04 0.05 0.04 0.04
0.01 0.00 0.00 0.00 0.00 0.01 0.02 0.03 0.04 0.05 0.06 0.05 0.04 0.02 0.01 0.01 0.01 0.01 0.01 0.02 0.02 0.03 0.02 0.02 0.02 0.00 0.00 0.00 0.00 0.01 0.01 0.01 0.02 0.03 0.04 0.04 0.05 0.04 0.03 0.03 0.05 0.05 0.05
0.01 0.01 0.00 0.00 0.00 0.01 0.01 0.02 0.05 0.07 0.07 0.08 0.08 0.05 0.02 0.01 0.01 0.01 0.01 0.01 0.02 0.03 0.03 0.02 0.01 0.01 0.00 0.00 0.00 0.01 0.02 0.02 0.02 0.03 0.04 0.04 0.04 0.04 0.03 0.03 0.05 0.05 0.04
0.01 0.01 0.01 0.00 0.00 0.00 0.01 0.01 0.02 0.04 0.06 0.08 0.10 0.07 0.05 0.02 0.00 0.00 0.00 0.01 0.01 0.01 0.02 0.01 0.01 0.01 0.01 0.01 0.02 0.02 0.02 0.01 0.02 0.02 0.03 0.04 0.05 0.06 0.07 0.06 0.04 0.02 0.02
0.00 0.01 0.01 0.01 0.00 0.01 0.01 0.01 0.01 0.01 0.03 0.05 0.06 0.07 0.06 0.04 0.02 0.01 0.00 0.00 0.01 0.01 0.01 0.01 0.01 0.01 0.01 0.02 0.02 0.02 0.02 0.02 0.02 0.02 0.02 0.03 0.05 0.07 0.06 0.04 0.04 0.03 0.01
0.00 0.00 0.00 0.01 0.00 0.01 0.02 0.01 0.01 0.01 0.02 0.03 0.03 0.04 0.05 0.05 0.04 0.03 0.02 0.01 0.01 0.01 0.01 0.01 0.01 0.01 0.01 0.01 0.02 0.02 0.02 0.01 0.01 0.02 0.03 0.03 0.03 0.04 0.04 0.04 0.04 0.03 0.02
0.00 0.00 0.00 0.01 0.01 0.02 0.02 0.03 0.02 0.01 0.01 0.01 0.02 0.02 0.03 0.03 0.03 0.03 0.03 0.03 0.02 0.01 0.01 0.01 0.01 0.00 0.00 0.00 0.01 0.02 0.02 0.02 0.02 0.02 0.02 0.02 0.02 0.03 0.03 0.04 0.05 0.04 0.02
0.00 0.00 0.01 0.01 0.01 0.02 0.03 0.03 0.03 0.02 0.01 0.01 0.01 0.02 0.02 0.03 0.04 0.04 0.04 0.03 0.02 0.02 0.01 0.01 0.01 0.01 0.00 0.00 0.00 0.01 0.01 0.02 0.02 0.02 0.02 0.02 0.02 0.02 0.03 0.04 0.05 0.04 0.03
0.00 0.00 0.00 0.01 0.02 0.02 0.03 0.03 0.03 0.02 0.02 0.01 0.01 0.02 0.02 0.02 0.03 0.03 0.04 0.04 0.02 0.02 0.01 0.01 0.00 0.01 0.01 0.02 0.03 0.02 0.01 0.01 0.02 0.02 0.03 0.02 0.02 0.03 0.03 0.03 0.04 0.04 0.03
0.01 0.01 0.01 0.00 0.00 0.01 0.01 0.03 0.03 0.03 0.02 0.01 0.01 0.01 0.02 0.02 0.02 0.02 0.02 0.02 0.02 0.01 0.01 0.00 0.00 0.00 0.01 0.01 0.03 0.03 0.02 0.01 0.02 0.02 0.03 0.02 0.01 0.02 0.03 0.03 0.03 0.02 0.02
0.00 0.01 0.01 0.01 0.01 0.01 0.01 0.02 0.04 0.03 0.02 0.02 0.01 0.01 0.01 0.01 0.01 0.01 0.01 0.02 0.02 0.02 0.01 0.00 0.00 0.00 0.00 0.01 0.03 0.04 0.03 0.01 0.01 0.01 0.02 0.03 0.02 0.02 0.03 0.04 0.03 0.02 0.01
0.00 0.00 0.00 0.00 0.00 0.00 0.00 0.01 0.02 0.02 0.02 0.02 0.01 0.01 0.01 0.01 0.01 0.01 0.01 0.02 0.02 0.02 0.02 0.01 0.00 0.00 0.00 0.01 0.01 0.02 0.01 0.01 0.01 0.01 0.01 0.01 0.02 0.03 0.04 0.05 0.04 0.03 0.02
0.01 0.01 0.01 0.00 0.00 0.00 0.00 0.00 0.01 0.01 0.01 0.02 0.02 0.01 0.01 0.00 0.00 0.00 0.01 0.02 0.03 0.02 0.02 0.01 0.00 0.00 0.00 0.00 0.01 0.01 0.01 0.01 0.01 0.01 0.00 0.01 0.02 0.03 0.05 0.05 0.04 0.03 0.02
0.00 0.01 0.01 0.01 0.01 0.01 0.01 0.00 0.00 0.01 0.00 0.01 0.02 0.02 0.01 0.00 0.00 0.00 0.00 0.01 0.01 0.02 0.03 0.02 0.01 0.01 0.00 0.00 0.01 0.01 0.01 0.01 0.01 0.01 0.01 0.01 0.01 0.02 0.03 0.04 0.04 0.03 0.02
0.00 0.01 0.00 0.01 0.01 0.01 0.01 0.00 0.00 0.00 0.00 0.01 0.01 0.02 0.01 0.00 0.00 0.00 0.00 0.01 0.01 0.01 0.01 0.02 0.03 0.01 0.01 0.01 0.01 0.01 0.01 0.01 0.01 0.01 0.01 0.01 0.01 0.01 0.02 0.03 0.04 0.03 0.03
0.00 0.00 0.00 0.00 0.01 0.01 0.01 0.00 0.00 0.01 0.01 0.01 0.00 0.01 0.02 0.01 0.00 0.00 0.00 0.01 0.01 0.01 0.01 0.01 0.01 0.01 0.01 0.01 0.01 0.01 0.01 0.01 0.01 0.01 0.02 0.02 0.02 0.02 0.02 0.04 0.04 0.03 0.02
0.01 0.01 0.00 0.00 0.01 0.01 0.01 0.01 0.01 0.01 0.01 0.01 0.01 0.00 0.01 0.01 0.01 0.01 0.00 0.01 0.01 0.01 0.01 0.01 0.01 0.01 0.01 0.01 0.00 0.01 0.01 0.01 0.01 0.01 0.01 0.01 0.01 0.02 0.02 0.03 0.05 0.04 0.03
0.02 0.02 0.02 0.01 0.01 0.01 0.01 0.01 0.01 0.01 0.01 0.02 0.01 0.01 0.01 0.01 0.01 0.01 0.01 0.01 0.01 0.01 0.01 0.01 0.01 0.01 0.01 0.01 0.01 0.00 0.00 0.00 0.00 0.01 0.01 0.01 0.01 0.01 0.01 0.02 0.03 0.04 0.03
0.03 0.03 0.02 0.02 0.02 0.02 0.01 0.01 0.02 0.01 0.02 0.01 0.01 0.01 0.01 0.01 0.01 0.02 0.01 0.01 0.01 0.02 0.02 0.01 0.01 0.02 0.02 0.01 0.01 0.01 0.01 0.01 0.01 0.01 0.00 0.01 0.01 0.01 0.01 0.01 0.03 0.04 0.03
MSLP
1023.35 1023.25 1023.20 1023.15 1023.07 1022.92 1022.72 1022.48 1022.23 1022.00 1021.80 1021.64 1021.51 1021.40 1021.28 1021.12 1020.92 1020.67 1020.38 1020.05 1019.72 1019.41 1019.12 1018.87 1018.67 1018.51 1018.39 1018.29 1018.20 1018.12 1018.03 1017.91 1017.75 1017.55 1017.30 1017.00 1016.66 1016.29 1015.91 1015.56 1015.26 1015.02 1014.86
1023.68 1023.60 1023.56 1023.52 1023.43 1023.29 1023.10 1022.86 1022.63 1022.41 1022.24 1022.11 1022.01 1021.91 1021.80 1021.64 1021.42 1021.15 1020.82 1020.47 1020.12 1019.78 1019.48 1019.22 1019.00 1018.82 1018.67 1018.54 1018.42 1018.30 1018.19 1018.06 1017.90 1017.72 1017.48 1017.20 1016.86 1016.48 1016.07 1015.66 1015.29 1014.97 1014.73
1023.99 1023.93 1023.90 1023.87 1023.80 1023.68 1023.50 1023.30 1023.10 1022.92 1022.78 1022.68 1022.60 1022.52 1022.40 1022.22 1021.98 1021.68 1021.33 1020.96 1020.59 1020.24 1019.94 1019.67 1019.44 1019.24 1019.06 1018.90 1018.74 1018.60 1018.46 1018.32 1018.18 1018.02 1017.82 1017.56 1017.25 1016.87 1016.44 1015.98 1015.53 1015.12 1014.78
1024.29 1024.25 1024.24 1024.22 1024.17 1024.06 1023.91 1023.75 1023.59 1023.46 1023.37 1023.31 1023.25 1023.17 1023.05 1022.86 1022.59 1022.27 1021.90 1021.52 1021.16 1020.82 1020.52 1020.26 1020.03 1019.81 1019.61 1019.41 1019.22 1019.04 1018.88 1018.75 1018.62 1018.50 1018.34 1018.14 1017.86 1017.50 1017.05 1016.55 1016.03 1015.53 1015.07
1024.59 1024.57 1024.57 1024.56 1024.51 1024.42 1024.31 1024.18 1024.07 1023.99 1023.95 1023.92 1023.89 1023.82 1023.70 1023.50 1023.23 1022.90 1022.54 1022.17 1021.82 1021.50 1021.23 1020.98 1020.75 1020.53 1020.30 1020.07 1019.85 1019.65 1019.48 1019.35 1019.25 1019.16 1019.06 1018.90 1018.66 1018.33 1017.88 1017.35 1016.77 1016.18 1015.62
1024.86 1024.86 1024.88 1024.87 1024.83 1024.75 1024.66 1024.57 1024.50 1024.47 1024.46 1024.48 1024.47 1024.43 1024.31 1024.12 1023.86 1023.55 1023.21 1022.87 1022.56 1022.28 1022.03 1021.81 1021.59 1021.36 1021.12 1020.86 1020.62 1020.39 1020.22 1020.09 1020.01 1019.96 1019.91 1019.80 1019.61 1019.30 1018.87 1018.32 1017.69 1017.02 1016.38
1025.10 1025.13 1025.15 1025.15 1025.11 1025.05 1024.97 1024.90 1024.87 1024.87 1024.91 1024.95 1024.98 1024.96 1024.87 1024.71 1024.47 1024.20 1023.90 1023.61 1023.34 1023.11 1022.90 1022.70 1022.50 1022.27 1022.01 1021.74 1021.47 1021.23 1021.05 1020.93 1020.87 1020.85 1020.83 1020.77 1020.61 1020.33 1019.91 1019.35 1018.70 1017.98 1017.27
1025.28 1025.35 1025.40 1025.40 1025.37 1025.31 1025.25 1025.20 1025.19 1025.23 1025.29 1025.36 1025.42 1025.43 1025.38 1025.25 1025.06 1024.83 1024.59 1024.35 1024.14 1023.96 1023.79 1023.62 1023.42 1023.19 1022.93 1022.65 1022.36 1022.11 1021.92 1021.80 1021.75 1021.74 1021.75 1021.71 1021.59 1021.33 1020.93 1020.38 1019.71 1018.98 1018.23
1025.40 1025.52 1025.60 1025.63 1025.61 1025.57 1025.52 1025.49 1025.51 1025.56 1025.65 1025.75 1025.83 1025.87 1025.85 1025.76 1025.62 1025.45 1025.27 1025.09 1024.93 1024.79 1024.66 1024.51 1024.33 1024.10 1023.84 1023.54 1023.25 1022.99 1022.78 1022.66 1022.61 1022.60 1022.61 1022.59 1022.48 1022.24 1021.85 1021.32 1020.67 1019.93 1019.16
1025.45 1025.62 1025.75 1025.82 1025.83 1025.82 1025.80 1025.80 1025.83 1025.91 1026.02 1026.14 1026.24 1026.31 1026.32 1026.28 1026.18 1026.06 1025.92 1025.80 1025.69 1025.58 1025.48 1025.35 1025.18 1024.96 1024.70 1024.40 1024.10 1023.83 1023.62 1023.48 1023.42 1023.40 1023.40 1023.37 1023.26 1023.03 1022.65 1022.14 1021.51 1020.79 1020.03
1025.41 1025.65 1025.84 1025.96 1026.03 1026.06 1026.08 1026.12 1026.19 1026.30 1026.43 1026.57 1026.69 1026.78 1026.81 1026.80 1026.74 1026.66 1026.57 1026.48 1026.40 1026.33 1026.25 1026.13 1025.97 1025.76 1025.50 1025.21 1024.91 1024.64 1024.42 1024.27 1024.18 1024.14 1024.11 1024.05 1023.92 1023.69 1023.33 1022.83 1022.23 1021.54 1020.79
1025.29 1025.61 1025.86 1026.05 1026.18 1026.28 1026.36 1026.45 1026.57 1026.71 1026.87 1027.03 1027.17 1027.28 1027.33 1027.34 1027.31 1027.25 1027.19 1027.13 1027.07 1027.02 1026.95 1026.85 1026.71 1026.51 1026.26 1025.98 1025.69 1025.42 1025.19 1025.02 1024.91 1024.83 1024.76 1024.67 1024.51 1024.26 1023.90 1023.42 1022.84 1022.18 1021.46
1025.10 1025.48 1025.80 1026.06 1026.27 1026.44 1026.59 1026.75 1026.93 1027.12 1027.32 1027.51 1027.67 1027.78 1027.85 1027.88 1027.86 1027.82 1027.78 1027.74 1027.70 1027.66 1027.60 1027.51 1027.38 1027.19 1026.96 1026.70 1026.43 1026.16 1025.93 1025.75 1025.60 1025.49 1025.37 1025.23 1025.04 1024.76 1024.39 1023.92 1023.37 1022.73 1022.04
1024.84 1025.27 1025.65 1025.98 1026.26 1026.51 1026.74 1026.98 1027.23 1027.48 1027.72 1027.94 1028.13 1028.27 1028.35 1028.38 1028.38 1028.36 1028.32 1028.29 1028.27 1028.23 1028.19 1028.11 1027.99 1027.83 1027.62 1027.38 1027.12 1026.87 1026.64 1026.44 1026.27 1026.11 1025.95 1025.76 1025.53 1025.22 1024.84 1024.37 1023.83 1023.22 1022.56
1024.53 1024.99 1025.41 1025.79 1026.14 1026.47 1026.79 1027.11 1027.43 1027.75 1028.04 1028.31 1028.52 1028.68 1028.78 1028.83 1028.84 1028.82 1028.80 1028.78 1028.76 1028.73 1028.70 1028.63 1028.53 1028.38 1028.20 1027.98 1027.75 1027.51 1027.28 1027.07 1026.88 1026.69 1026.48 1026.25 1025.97 1025.64 1025.24 1024.77 1024.24 1023.66 1023.02
1024.19 1024.67 1025.11 1025.53 1025.93 1026.33 1026.73 1027.12 1027.52 1027.91 1028.26 1028.57 1028.82 1029.00 1029.12 1029.18 1029.20 1029.19 1029.18 1029.17 1029.15 1029.14 1029.11 1029.06 1028.97 1028.84 1028.68 1028.49 1028.27 1028.05 1027.83 1027.62 1027.40 1027.18 1026.95 1026.68 1026.37 1026.01 1025.59 1025.13 1024.61 1024.06 1023.45
1023.85 1024.32 1024.78 1025.22 1025.67 1026.12 1026.58 1027.05 1027.51 1027.96 1028.36 1028.71 1028.99 1029.20 1029.34 1029.41 1029.45 1029.45 1029.45 1029.44 1029.44 1029.43 1029.41 1029.37 1029.30 1029.19 1029.04 1028.87 1028.68 1028.47 1028.26 1028.04 1027.82 1027.58 1027.32 1027.03 1026.70 1026.32 1025.90 1025.44 1024.94 1024.41 1023.84
1023.53 1024.00 1024.46 1024.92 1025.39 1025.89 1026.40 1026.92 1027.44 1027.93 1028.38 1028.76 1029.06 1029.29 1029.44 1029.53 1029.57 1029.59 1029.60 1029.60 1029.60 1029.60 1029.59 1029.56 1029.50 1029.40 1029.28 1029.12 1028.94 1028.75 1028.55 1028.34 1028.11 1027.87 1027.60 1027.29 1026.95 1026.57 1026.16 1025.71 1025.24 1024.74 1024.20
1023.27 1023.73 1024.19 1024.66 1025.16 1025.68 1026.23 1026.79 1027.34 1027.86 1028.33 1028.73 1029.05 1029.28 1029.44 1029.54 1029.59 1029.61 1029.63 1029.64 1029.65 1029.66 1029.66 1029.63 1029.58 1029.50 1029.39 1029.25 1029.09 1028.91 1028.72 1028.52 1028.30 1028.06 1027.79 1027.49 1027.16 1026.79 1026.38 1025.96 1025.51 1025.04 1024.55
1023.06 1023.53 1024.00 1024.48 1025.00 1025.54 1026.11 1026.69 1027.26 1027.79 1028.27 1028.66 1028.98 1029.21 1029.36 1029.46 1029.51 1029.54 1029.56 1029.58 1029.60 1029.62 1029.63 1029.62 1029.58 1029.52 1029.42 1029.30 1029.15 1028.99 1028.82 1028.63 1028.42 1028.19 1027.94 1027.65 1027.33 1026.98 1026.59 1026.19 1025.78 1025.35 1024.90
1022.92 1023.39 1023.88 1024.38 1024.91 1025.47 1026.05 1026.64 1027.21 1027.73 1028.19 1028.57 1028.87 1029.08 1029.22 1029.31 1029.36 1029.40 1029.43 1029.46 1029.49 1029.53 1029.55 1029.56 1029.54 1029.49 1029.42 1029.31 1029.19 1029.05 1028.89 1028.71 1028.52 1028.31 1028.07 1027.80 1027.50 1027.17 1026.81 1026.44 1026.06 1025.67 1025.26
1022.81 1023.30 1023.81 1024.33 1024.88 1025.45 1026.03 1026.61 1027.16 1027.66 1028.10 1028.45 1028.72 1028.91 1029.04 1029.11 1029.16 1029.20 1029.24 1029.29 1029.34 1029.40 1029.45 1029.49 1029.49 1029.47 1029.42 1029.34 1029.24 1029.12 1028.98 1028.82 1028.64 1028.45 1028.22 1027.97 1027.69 1027.38 1027.05 1026.71 1026.36 1026.00 1025.64
1022.70 1023.21 1023.73 1024.27 1024.83 1025.41 1025.99 1026.55 1027.08 1027.56 1027.96 1028.28 1028.52 1028.69 1028.80 1028.87 1028.92 1028.97 1029.03 1029.10 1029.19 1029.27 1029.36 1029.43 1029.47 1029.48 1029.46 1029.41 1029.33 1029.23 1029.10 1028.96 1028.80 1028.61 1028.40 1028.16 1027.90 1027.61 1027.31 1027.00 1026.68 1026.36 1026.04
1022.55 1023.07 1023.60 1024.15 1024.72 1025.29 1025.86 1026.41 1026.91 1027.35 1027.73 1028.02 1028.24 1028.39 1028.50 1028.57 1028.64 1028.71 1028.79 1028.90 1029.02 1029.15 1029.27 1029.38 1029.46 1029.51 1029.52 1029.51 1029.45 1029.37 1029.26 1029.13 1028.98 1028.80 1028.60 1028.38 1028.13 1027.86 1027.59 1027.31 1027.03 1026.74 1026.46
1022.31 1022.83 1023.36 1023.91 1024.47 1025.03 1025.58 1026.11 1026.59 1027.01 1027.35 1027.63 1027.84 1027.99 1028.11 1028.20 1028.30 1028.40 1028.53 1028.67 1028.84 1029.01 1029.18 1029.33 1029.45 1029.54 1029.59 1029.60 1029.57 1029.51 1029.42 1029.30 1029.15 1028.98 1028.79 1028.58 1028.35 1028.11 1027.86 1027.62 1027.37 1027.13 1026.89
1021.95 1022.46 1022.97 1023.50 1024.04 1024.58 1025.11 1025.61 1026.07 1026.47 1026.81 1027.08 1027.30 1027.48 1027.62 1027.75 1027.88 1028.03 1028.20 1028.40 1028.61 1028.82 1029.03 1029.23 1029.39 1029.52 1029.60 1029.64 1029.64 1029.60 1029.52 1029.42 1029.28 1029.12 1028.94 1028.75 1028.54 1028.33 1028.12 1027.91 1027.72 1027.53 1027.34
Thickness
5733 5733 5733 5731 5728 5726 5723 5720 5718 5716 5714 5711 5709 5706 5704 5704 5704 5704 5703 5703 5702 5701 5700 5698 5697 5696 5693 5691 5690 5688 5686 5685 5686 5684 5682 5685 5688 5688 5688 5688 5689 5689 5689
5730 5729 5729 5727 5724 5722 5719 5718 5715 5713 5711 5708 5706 5704 5702 5701 5700 5699 5699 5698 5697 5696 5695 5693 5692 5690 5688 5686 5684 5682 5679 5678 5680 5676 5673 5670 5673 5678 5682 5682 5682 5682 5683
5726 5725 5724 5722 5720 5718 5716 5715 5712 5710 5707 5705 5703 5700 5698 5696 5694 5693 5693 5693 5693 5692 5690 5689 5687 5685 5683 5680 5678 5677 5674 5671 5673 5673 5669 5663 5660 5664 5670 5673 5674 5675 5675
5726 5723 5721 5718 5717 5716 5716 5713 5710 5707 5704 5702 5698 5694 5690 5687 5687 5687 5687 5688 5688 5687 5685 5684 5682 5680 5678 5676 5674 5673 5671 5668 5665 5667 5667 5665 5663 5658 5657 5661 5665 5667 5667
5725 5722 5719 5717 5716 5714 5712 5710 5707 5704 5701 5699 5695 5691 5688 5686 5685 5684 5683 5682 5682 5682 5680 5679 5677 5675 5674 5672 5670 5668 5666 5664 5662 5660 5660 5659 5658 5658 5652 5649 5653 5656 5659
5723 5720 5718 5715 5713 5710 5708 5706 5703 5699 5697 5694 5692 5688 5684 5682 5680 5678 5677 5676 5676 5675 5675 5674 5672 5670 5669 5667 5665 5663 5661 5660 5658 5656 5655 5652 5650 5648 5647 5644 5644 5646 5650
5719 5715 5712 5710 5707 5705 5702 5700 5697 5694 5692 5690 5688 5685 5682 5679 5676 5674 5672 5671 5669 5669 5669 5668 5666 5665 5664 5663 5661 5659 5656 5655 5653 5651 5650 5649 5647 5646 5643 5640 5639 5640 5642
5714 5711 5710 5707 5704 5701 5698 5695 5693 5690 5688 5686 5683 5681 5679 5675 5673 5671 5669 5667 5665 5664 5664 5663 5661 5660 5659 5658 5656 5653 5652 5650 5648 5647 5645 5643 5642 5641 5639 5636 5634 5632 5634
5707 5706 5705 5703 5700 5697 5694 5691 5688 5685 5683 5681 5679 5677 5675 5671 5669 5667 5665 5663 5662 5661 5660 5658 5657 5655 5654 5652 5650 5648 5646 5645 5643 5641 5640 5638 5637 5636 5635 5633 5631 5627 5625
5702 5700 5699 5697 5694 5692 5690 5687 5684 5681 5679 5677 5675 5673 5670 5668 5665 5663 5660 5659 5658 5656 5654 5653 5651 5649 5648 5646 5644 5642 5641 5639 5638 5636 5635 5632 5631 5629 5629 5628 5626 5625 5622
5695 5694 5692 5691 5689 5687 5684 5681 5679 5676 5674 5672 5671 5668 5665 5663 5660 5657 5656 5654 5653 5651 5649 5648 5646 5643 5642 5640 5638 5635 5634 5633 5632 5631 5629 5626 5625 5623 5623 5622 5620 5618 5617
5690 5688 5686 5685 5682 5680 5678 5676 5674 5671 5669 5667 5665 5663 5660 5657 5655 5652 5651 5649 5647 5646 5644 5642 5640 5638 5636 5633 5631 5628 5627 5626 5624 5623 5622 5620 5619 5617 5616 5615 5614 5612 5611
5682 5681 5679 5678 5676 5674 5672 5670 5668 5666 5663 5661 5658 5656 5653 5651 5649 5647 5646 5644 5642 5640 5638 5635 5633 5631 5629 5627 5624 5622 5620 5619 5618 5617 5615 5613 5612 5610 5610 5609 5608 5607 5607
5675 5673 5671 5670 5669 5668 5667 5664 5662 5660 5657 5654 5652 5649 5647 5645 5644 5642 5640 5638 5636 5633 5631 5629 5627 5625 5622 5620 5618 5616 5614 5612 5611 5610 5609 5607 5606 5605 5604 5604 5603 5602 5600
5667 5667 5664 5663 5661 5661 5660 5658 5656 5654 5651 5648 5645 5643 5641 5639 5638 5636 5633 5631 5629 5627 5625 5623 5621 5618 5616 5613 5611 5608 5607 5604 5603 5602 5601 5600 5600 5599 5599 5599 5597 5596 5594
5660 5660 5658 5656 5655 5654 5652 5651 5649 5647 5645 5641 5638 5636 5634 5632 5630 5629 5627 5624 5622 5621 5619 5616 5613 5611 5609 5607 5604 5602 5600 5598 5596 5595 5594 5594 5593 5593 5593 5593 5592 5591 5589
5654 5653 5651 5650 5648 5647 5646 5644 5642 5640 5637 5634 5631 5629 5627 5625 5623 5621 5619 5617 5615 5613 5611 5609 5606 5603 5601 5599 5597 5595 5593 5591 5590 5589 5587 5588 5588 5587 5586 5586 5586 5586 5586
5649 5647 5646 5644 5642 5642 5640 5639 5636 5633 5630 5627 5624 5622 5620 5617 5615 5614 5611 5609 5608 5605 5603 5601 5599 5596 5594 5592 5590 5588 5586 5585 5584 5583 5582 5581 5580 5580 5580 5579 5579 5580 5580
5644 5642 5641 5639 5637 5635 5633 5631 5629 5626 5623 5620 5618 5615 5613 5610 5608 5606 5603 5602 5600 5597 5595 5594 5591 5588 5586 5585 5583 5582 5580 5579 5578 5578 5577 5576 5574 5575 5575 5574 5573 5574 5575
5638 5636 5634 5632 5629 5627 5626 5623 5620 5618 5615 5614 5611 5609 5606 5604 5601 5599 5597 5594 5592 5590 5588 5587 5584 5581 5578 5577 5576 5575 5573 5571 5571 5571 5570 5570 5569 5568 5568 5567 5567 5567 5568
5631 5629 5626 5624 5622 5620 5618 5616 5613 5610 5609 5607 5604 5602 5599 5597 5595 5592 5590 5587 5585 5583 5581 5579 5577 5574 5571 5569 5568 5566 5565 5563 5563 5563 5563 5562 5562 5562 5562 5562 5562 5562 5562
5622 5620 5618 5615 5614 5613 5610 5608 5605 5604 5602 5599 5597 5594 5592 5590 5588 5584 5582 5580 5577 5575 5572 5570 5567 5566 5564 5562 5560 5558 5557 5557 5555 5555 5555 5555 5556 5556 5556 5555 5556 5556 5556
5612 5611 5609 5607 5605 5604 5603 5599 5598 5597 5595 5592 5589 5587 5585 5582 5580 5577 5574 5571 5569 5565 5563 5561 5558 5557 5555 5553 5552 5551 5550 5549 5548 5548 5549 5549 5549 5549 5549 5549 5549 5548 5547
5603 5602 5601 5598 5596 5596 5595 5593 5591 5590 5587 5584 5581 5579 5576 5574 5571 5568 5566 5562 5559 5556 5554 5552 5550 5548 5547 5545 5543 5542 5541 5541 5541 5541 5542 5542 5543 5542 5542 5542 5542 5541 5541
5594 5593 5591 5589 5588 5587 5586 5585 5584 5582 5579 5577 5574 5571 5569 5565 5562 5559 5556 5554 5551 5549 5546 5544 5542 5540 5539 5538 5537 5535 5534 5533 5533 5533 5534 5534 5534 5534 5534 5534 5534 5534 5534
5586 5584 5582 5580 5579 5579 5578 5577 5576 5574 5571 5568 5566 5563 5560 5557 5554 5550 5547 5546 5544 5542 5540 5538 5536 5534 5533 5531 5530 5529 5528 5527 5527 5525 5525 5525 5525 5525 5525 5525 5525 5526 5526